RADUGA 9 (12618 NORAD) Tracking and Keplerian Element Data

This shows tracking and keplerian element data for the satellite.

Feedback or suggestion? Click here.




ElementValue
Catalog12618
NameRADUGA 9
Epoch Orbit4233
Epoch Day33.89419866
Epoch Year2025
RAAN297.9468
Inclination7.7675
Eccentricity9.16E-05
Argument of Perigee180.969
Mean Anonmoly33.9769
Mean Motion1.00346665
Decay Rate5.6E-07
L11 12618U 81069A 25033.89419866 .00000056 00000+0 00000+0 0 9995
L22 12618 7.7675 297.9468 0000916 180.9690 33.9769 1.00346665 42336



Live tracking and technical data element details for RADUGA 9 (NORAD 12618). RADUGA 9 can be tracked NOW for your location showing map with azimuth and elevation plus other details from your city location.







IsCatalogInMostPopularTable: catalog: 12618, numindb: 338
Update: records affected: 1



GetName: 12618 RADUGA 9

Hit Count: updated at: Thu, 15 May 2025 09:58:03 GMT